[Iaude] MPEC U120: 2023 TE32 [a=1.29,e=0.28,i=3.9,H=24.9]

mpec at marsden.cfa.harvard.edu mpec at marsden.cfa.harvard.edu
Thu Oct 19 16:11:23 EDT 2023


M.P.E.C. 2023-U120                             Issued 2023 October 19, 20:09 UT

     The Minor Planet Electronic Circulars contain information on unusual
         minor planets, routine data on comets and natural satellites,
         and occasional editorial announcements.  They are published
    on behalf of Division F of the International Astronomical Union by the
          Minor Planet Center, Smithsonian Astrophysical Observatory,
                          Cambridge, MA 02138, U.S.A.
			  
             Prepared using the Tamkin Foundation Computer Network

                              MPC at CFA.HARVARD.EDU
            URL https://www.minorplanetcenter.net/    ISSN 1523-6714

                                   2023 TE32                                    


Observations:
     K23T32E  C2023 10 15.42001602 08 22.107-11 05 15.80         21.67GVEU120F52
     K23T32E* C2023 10 15.42980002 08 22.249-11 05 45.66         21.50wXEU120F52
     K23T32E  C2023 10 15.43961102 08 22.388-11 06 15.70         21.29wXEU120F52
     K23T32E  C2023 10 15.44937202 08 22.517-11 06 45.43         21.56wXEU120F52
     K23T32E 3C2023 10 16.47335402 09 00.820-11 59 51.61         22.11GVEU120T14
     K23T32E 3C2023 10 16.47547802 09 00.845-11 59 58.22         22.02GVEU120T14
     K23T32E 3C2023 10 16.47645602 09 00.857-12 00 01.39         22.51GVEU120T14
     K23T32E 3C2023 10 17.54616202 09 40.350-12 57 35.36         21.69GVEU120T14
     K23T32E 3C2023 10 17.54714202 09 40.366-12 57 38.58         21.79GVEU120T14
     K23T32E 3C2023 10 17.54812002 09 40.384-12 57 41.71         21.80GVEU120T14
     K23T32E 3C2023 10 17.54910202 09 40.396-12 57 44.92         21.72GVEU120T14

Observer details:
F52 Pan-STARRS 2, Haleakala.  Observers J. Bulger, T. Lowe, P. Minguez, A.
    Schultz, I. Smith.  Measurers K. Chambers, T. de Boer, J. Fairlamb, H.
    Gao, M. Huber, C.-C. Lin, E. Magnier, Y. Ramanjooloo, R. Wainscoat, R.
    Weryk.  1.8-m Ritchey-Chretien + CCD.
T14 Canada-France-Hawaii Telescope, Maunakea.  Observers R. Wainscoat, H.
    Januszewski, T. Burdullis.  Measurers R. Weryk, R. Wainscoat.  3.6-m
    Canada-France-Hawaii Telescope + CCD.

Orbital elements:
2023 TE32                                                Earth MOID = 0.0118 AU
Epoch 2023 Sept. 13.0 TT = JDT 2460200.5                Alexandersen            
M 288.30169              (2000.0)            P               Q                  
n   0.67507836     Peri.  306.08842     -0.19833119     -0.97973331             
a   1.2869646      Node   155.30641     +0.91946731     -0.19589468             
e   0.2757195      Incl.    3.85134     +0.33947696     -0.04180818             
P   1.46           H   24.97          G   0.15           U   9                  
Residuals in seconds of arc
231015 F52  0.1+  0.0     231016 T14  0.0   0.0     231017 T14  0.0   0.0
231015 F52  0.1+  0.1+    231016 T14  0.0   0.1+    231017 T14  0.0   0.0
231015 F52  0.2+  0.2+    231016 T14  0.0   0.0     231017 T14  0.1-  0.0
231015 F52  0.1+  0.3+    231017 T14  0.0   0.0

Ephemeris:
2023 TE32                a,e,i = 1.29, 0.28, 4                   q = 0.9321
Date    TT    R. A. (2000) Decl.     Delta      r    Elong.  Phase     V
2023 09 19    01 48 19.8 +02 44 02   0.2731  1.2458   148.5    25.0    23.8
...
2023 10 04    02 00 50.0 -03 13 36   0.1921  1.1808   157.9    18.6    22.7
...
2023 10 12    02 06 11.6 -08 21 19   0.1573  1.1462   158.6    18.5    22.2
...
2023 10 18    02 10 00.4 -13 22 06   0.1350  1.1205   155.1    22.0    21.9
2023 10 19    02 10 39.9 -14 18 49   0.1316  1.1163   154.2    22.8    21.9
2023 10 20    02 11 20.5 -15 17 31   0.1283  1.1120   153.2    23.8    21.9
...
2023 10 26    02 15 59.8 -21 54 55   0.1102  1.0871   145.7    31.0    21.7
...
2023 11 03    02 25 27.0 -33 03 20   0.09077 1.0552   132.1    44.2    21.6
...
2023 11 18    03 22 22.4 -61 55 38   0.06909 1.0019    99.0    77.1    21.9

M. P. C. Staff               (C) Copyright 2023 MPC           M.P.E.C. 2023-U120





More information about the Iaude mailing list